KT1D-13 Weather Reports


Display with metric or nautical units.
time (UTC)temp
F
wind
direction
speed
MPH
gust
MPH
rain 1hr
in
rain 24hr
in
rain mn
in
humidity
%
barometer
mb
20260505014518 60 200 4.0 11.0 0.00 0.00 0.00 53 1009.8
20260505013518 60 228 6.0 12.0 0.00 0.00 0.00 52 1009.7
20260505012521 61 193 4.0 8.0 0.00 0.00 0.00 51 1009.6
20260505011521 61 196 4.0 9.0 0.00 0.00 0.00 51 1009.4
20260505010521 62 220 4.0 9.0 0.00 0.00 0.00 50 1009.2
20260505005521 62 214 5.0 8.0 0.00 0.00 0.00 49 1009.0
20260505004521 62 222 3.0 10.0 0.00 0.00 0.00 49 1008.9
20260505003559 63 221 5.0 13.0 0.00 0.00 0.00 49 1008.6
20260505002522 63 213 4.0 9.0 0.00 0.00 0.00 48 1008.4
20260505001522 63 222 4.0 9.0 0.00 0.00 0.00 48 1008.2
20260505000522 64 220 5.0 9.0 0.00 0.00 0.00 47 1007.9
20260504235519 64 198 6.0 12.0 0.00 0.00 0.00 47 1007.7
20260504234516 65 205 7.0 14.0 0.00 0.00 0.00 45 1007.5
20260504233516 66 198 4.0 9.0 0.00 0.00 0.00 44 1007.3
20260504232519 66 234 5.0 12.0 0.00 0.00 0.00 43 1007.2
20260504231520 67 232 6.0 14.0 0.00 0.00 0.00 42 1007.0
20260504230517 67 240 7.0 13.0 0.00 0.00 0.00 41 1006.8
20260504225537 68 226 6.0 11.0 0.00 0.00 0.00 40 1006.5
20260504224537 69 221 5.0 10.0 0.00 0.00 0.00 38 1006.4
20260504223517 70 242 4.0 8.0 0.00 0.00 0.00 35 1006.2
20260504222517 71 201 4.0 9.0 0.00 0.00 0.00 35 1006.2
20260504221518 71 251 5.0 9.0 0.00 0.00 0.00 34 1006.2
20260504220518 71 246 6.0 13.0 0.00 0.00 0.00 35 1006.2
20260504215518 71 225 6.0 12.0 0.00 0.00 0.00 35 1006.3
20260504214518 70 253 6.0 12.0 0.00 0.00 0.00 34 1006.3
20260504213519 70 237 3.0 7.0 0.00 0.00 0.00 35 1006.3
20260504212518 70 247 7.0 14.0 0.00 0.00 0.00 35 1006.3
20260504211519 71 250 5.0 10.0 0.00 0.00 0.00 34 1006.2
20260504210519 71 246 6.0 13.0 0.00 0.00 0.00 34 1006.3
20260504205519 70 238 7.0 17.0 0.00 0.00 0.00 34 1006.3
20260504204519 70 226 5.0 12.0 0.00 0.00 0.00 34 1006.2
20260504203519 70 239 5.0 13.0 0.00 0.00 0.00 34 1006.3
20260504202519 70 236 7.0 18.0 0.00 0.00 0.00 34 1006.3
20260504201600 69 235 4.0 9.0 0.00 0.00 0.00 34 1006.3
20260504200516 70 253 8.0 14.0 0.00 0.00 0.00 34 1006.4
20260504195517 70 228 6.0 12.0 0.00 0.00 0.00 33 1006.4
20260504194520 70 248 6.0 14.0 0.00 0.00 0.00 33 1006.4
20260504193520 70 222 8.0 14.0 0.00 0.00 0.00 33 1006.4
20260504192520 70 233 6.0 10.0 0.00 0.00 0.00 33 1006.4
20260504191517 70 257 9.0 15.0 0.00 0.00 0.00 33 1006.5
20260504190558 69 260 7.0 15.0 0.00 0.00 0.00 33 1006.6
20260504185517 69 261 8.0 15.0 0.00 0.00 0.00 33 1006.6
20260504184601 69 250 4.0 9.0 0.00 0.00 0.00 34 1006.8
20260504183517 69 255 8.0 15.0 0.00 0.00 0.00 34 1006.8
20260504182518 69 251 7.0 15.0 0.00 0.00 0.00 34 1007.0
20260504181518 69 252 7.0 16.0 0.00 0.00 0.00 34 1006.9
20260504180519 68 256 8.0 13.0 0.00 0.00 0.00 34 1006.9
20260504175518 67 257 8.0 17.0 0.00 0.00 0.00 34 1007.0
20260504174519 67 232 7.0 14.0 0.00 0.00 0.00 35 1007.2
20260504173519 67 244 7.0 14.0 0.00 0.00 0.00 35 1007.2
20260504172519 67 257 9.0 19.0 0.00 0.00 0.00 35 1007.3
20260504171536 67 248 8.0 16.0 0.00 0.00 0.00 35 1007.4
20260504170519 66 252 10.0 20.0 0.00 0.00 0.00 35 1007.3
20260504150518 63 237 7.0 14.0 0.00 0.00 0.00 39 1008.6
20260504140519 60 249 7.0 13.0 0.00 0.00 0.00 43 1009.0
20260504130520 57 261 8.0 14.0 0.00 0.00 0.00 46 1009.9
20260504110542 49 252 4.0 7.0 0.00 0.00 0.00 53 1010.0
20260504100519 46 223 1.0 2.0 0.00 0.00 0.00 61 1010.1
20260504081521 47 249 1.0 3.0 0.00 0.00 0.00 56 1009.9
20260504080542 47 269 1.0 2.0 0.00 0.00 0.00 56 1009.9
20260504050525 41 239 1.0 2.0 0.00 0.00 0.00 63 1009.8
20260504045524 40 248 0.0 1.0 0.00 0.00 0.00 64 1009.9
20260504044524 40 316 0.0 1.0 0.00 0.00 0.00 67 1009.9
20260504043525 41 255 1.0 1.0 0.00 0.00 0.00 64 1009.8
20260504042524 40 259 0.0 1.0 0.00 0.00 0.00 65 1009.7
20260504041524 40 347 0.0 1.0 0.00 0.00 0.00 65 1009.8
20260504040525 40 288 0.0 1.0 0.00 0.00 0.00 67 1009.7
20260504035525 40 295 0.0 1.0 0.00 0.00 0.00 66 1009.6
20260504034525 41 3 0.0 0.0 0.00 0.00 0.00 64 1009.5
20260504033545 41 334 0.0 1.0 0.00 0.00 0.00 62 1009.5
20260504032525 41 323 0.0 1.0 0.00 0.00 0.00 61 1009.5
20260504031525 41 343 0.0 1.0 0.00 0.00 0.00 61 1009.5
20260504030526 41 341 0.0 1.0 0.00 0.00 0.00 62 1009.5
20260504025526 40 339 0.0 1.0 0.00 0.00 0.00 63 1009.4
20260504024546 39 1 0.0 1.0 0.00 0.00 0.00 67 1009.3
20260504023526 40 2 0.0 0.0 0.00 0.00 0.00 65 1009.3
20260504022527 40 245 0.0 1.0 0.00 0.00 0.00 66 1009.3
20260504021527 40 0.0 0.0 0.00 0.00 0.00 65 1009.3
20260504020547 40 0.0 0.0 0.00 0.00 0.00 64 1009.2
20260504015527 41 0.0 0.0 0.00 0.00 0.00 62 1009.2